Portage Invitational 2015

Portage, MI

Portage Invitational 2015 vs Portage Invitational 2012

Aggregate Data Points
Difference This Meet That Meet
Overall Athletes +1574 4315 2741
Overall Average +53.27 21:25.07 20:31.80
1st-10th Place -21.41 15:09.23 15:30.64
1st-25th Place -17.10 15:25.72 15:42.82
1st-50th Place -9.88 15:43.04 15:52.92
1st-100th Place -6.05 16:01.54 16:07.59
Common Athletes -- -- 269
Ran Faster 137 203 66
Ran Season Best -12 114 126
Average Time -52.17 19:44.63 20:36.80
Median Time -54.90 19:19.60 20:14.50
Middle 80% Times -56.66 19:28.33 20:24.99
Top 10% Times -1:22.52 16:01.30 17:23.81
Top 25% Times -1:16.96 16:39.21 17:56.16
Top 50% Times -1:13.00 17:29.81 18:42.81
Bottom 50% Times -30.95 21:50.68 22:21.64
Bottom 25% Times -10.31 23:43.33 23:53.64
Bottom 10% Times +15.41 25:47.52 25:32.11
Average Difference -52.17 -- --
Median Difference -2:02.20 -- --
Middle 80% Difference -59.11 -- --
Top 10% Difference -51.76 -- --
Top 50% Difference -1:03.52 -- --
Top 25% Difference -1:04.67 -- --
Top 50% Difference -1:03.52 -- --
Bottom 50% Difference -41.34 -- --
Bottom 25% Difference -27.83 -- --
Bottom 10% Difference +13.53 -- --

Performances of Common Athletes
Athlete Team Difference This Meet That Meet
Isaac Harding Rockford -1:33.70 15:00.10 16:33.80
Logan Kleam Brownstown Woodhaven -2:08.20 15:09.70 17:17.90
Anthony Berry Traverse City Central -1:04.60 15:10.10 16:14.70
Abe Visser Grandville Calvin Christian -2:11.40 15:13.00 17:24.40
Nick Hirschenberger Traverse City West -1:44.30 15:15.40 16:59.70
Arik Lafave Hesperia -2:49.30 15:40.10 18:29.40
Josh Nickerson Hartland -1:31.40 15:43.20 17:14.60
Ethan Taljonick Clio -2:33.10 15:43.50 18:16.60
Jesse Saxton Grant -2:35.20 15:48.30 18:23.50
Grayson Harding Rockford -2:22.20 15:51.20 18:13.40
Kory Johnson Brownstown Woodhaven -2:38.40 15:58.90 18:37.30
Grant Gabriel Rockford -1:42.10 16:10.30 17:52.40
Matthew Macgregor Rockford -3:07.20 16:10.90 19:18.10
Jonathan Voth Grand Blanc -2:10.10 16:15.10 18:25.20
Eric Poth Marlette -2:21.50 16:15.80 18:37.30
Anthony Wohlfeil Monroe -1:40.80 16:16.40 17:57.20
Bryan Adamovicz Saline -1:07.30 16:21.10 17:28.40
John Giles Saline -1:12.70 16:22.20 17:34.90
Matt Ring Schoolcraft -1:04.80 16:23.50 17:28.30
Connor Schwartz Hudsonville Unity Christian -51.20 16:24.30 17:15.50
Joe Hughes Traverse City West -1:19.80 16:25.10 17:44.90
Brendan Daly Watervliet -58.10 16:25.40 17:23.50
Jarek Brower Zeeland West -1:28.20 16:27.40 17:55.60
Perry Carter Wayland Union -2:00.10 16:29.30 18:29.40
Antonio Wenglikowski Bay City Western -1:43.50 16:29.30 18:12.80
Angelo Leon East Kentwood -1:49.70 16:31.60 18:21.30
Austin Shepherd Hanover-Horton -25.40 16:33.80 16:59.20
Kellen Rau Grandville -2:16.60 16:41.20 18:57.80
Gregory Lingle Temperance-Bedford -1:31.30 16:41.80 18:13.10
Matthew Levitt East Grand Rapids -10.30 16:43.20 16:53.50
Brenden Jones Holland Black River -1:35.50 16:45.50 18:21.00
Jordan Anderson Bear Lake -56.00 16:46.30 17:42.30
Nolan Meister East Kentwood -40.80 16:49.50 17:30.30
Dylan Mosher Clio -50.40 16:50.30 17:40.70
Noah Kramer Hartland -56.30 16:50.30 17:46.60
Taylor Mrozinski Rockford -2:44.40 16:51.00 19:35.40
Demeatrice Webster East Kentwood -1:12.10 16:52.10 18:04.20
Zach Abbee Hanover-Horton -1:31.00 16:52.20 18:23.20
Cody Clemens Portage Northern -2:36.70 16:52.50 19:29.20
Zachary Reynolds Ann Arbor Skyline -2:24.70 16:55.60 19:20.30
Derek Jordan Saline -50.40 16:55.60 17:46.00
Austin Yunker Mendon -2:46.90 16:59.20 19:46.10
Josh Evers Coldwater -57.00 17:00.80 17:57.80
Elliott Hanke Bridgman -1:52.20 17:01.60 18:53.80
Michael Bank Carleton Airport -1:07.40 17:02.10 18:09.50
Jeremy Bond Charyl Stockwell Academy -55.60 17:02.20 17:57.80
Cole Szunko Traverse City Central -3:11.80 17:02.70 20:14.50
Cooper Thieme Grand Rapids Forest Hills Eastern -2:50.00 17:02.90 19:52.90
Mitchell Smith Hartland -1:36.30 17:03.30 18:39.60
Jimmy Vanderbosch Traverse City Central -1:14.30 17:04.30 18:18.60
Noah Robotham Benzie Central -31.80 17:05.00 17:36.80
Miles Mcdonald Hartland -2:21.40 17:06.30 19:27.70
Eric Farhadi Caledonia -37.60 17:07.80 17:45.40
Jordan Diephouse Grand Haven -20.30 17:11.30 17:31.60
Brian Blankenship Saline -28.00 17:12.30 17:40.30
Karl Hanke Bridgman -3:04.60 17:13.90 20:18.50
Gabe Lamer Grandville Calvin Christian -2:04.10 17:14.70 19:18.80
Kelton Eldred Blanchard Montabella -57.30 17:15.90 18:13.20
Wayne Matunas Portage Northern -1:23.10 17:16.30 18:39.40
Faruq Schieber Kalamazoo Central -1:18.70 17:19.10 18:37.80
Ben Carpenter Marcellus -4:04.60 17:20.30 21:24.90
Cody Jakiel Caledonia -18.50 17:20.60 17:39.10
Hunter VanKlompenberg Grandville Calvin Christian -1:09.10 17:21.10 18:30.20
Shayden Fisher Grandville -14.40 17:21.60 17:36.00
Kyle Chamberlain Hudsonville -8.50 17:22.90 17:31.40
Adam Clemens Coldwater -1:54.20 17:24.20 19:18.40
Elliott Lipe Bath -1:38.00 17:24.60 19:02.60
Nadji Butris Jackson Lumen Christi -2:29.80 17:27.00 19:56.80
Will Warmoth Spring Lake -51.10 17:27.30 18:18.40
Brenden Streelman Byron Center +4.60 17:36.50 17:31.90
Owen Webb Hillsdale -2:53.10 17:34.90 20:28.00
Alex Eby Carleton Airport -1:14.60 17:35.60 18:50.20
Cole Verrett Bear Lake -1:30.30 17:37.00 19:07.30
Alex Beauchamp Hastings -2:21.00 17:38.60 19:59.60
Mathew Koenig Bay City Western -1:03.80 17:39.40 18:43.20
Jacob Thomas Ann Arbor Skyline -3:43.60 17:39.90 21:23.50
Aaron Kruzel Brighton -2.20 17:40.10 17:42.30
Ryan Vanappledorn Holland Christian -1:09.20 17:41.10 18:50.30
Kevin Wunderley Kalamazoo Christian +5.60 17:47.20 17:41.60
Andrew Travis Shepherd -1:08.60 17:44.80 18:53.40
Danny Baker Okemos -2:06.50 17:47.00 19:53.50
Cameron Vinton Hanover-Horton -2:58.90 17:48.40 20:47.30
Chase Field Clare -1:10.60 17:50.30 19:00.90
Jacob Ehrman Saline -13.10 17:50.80 18:03.90
Josh Bostwick Brighton -1:12.50 17:51.90 19:04.40
Alex Harrell Kalamazoo Loy Norrix -2:35.60 17:53.00 20:28.60
Jeremy Tervo Hartland -1:05.70 17:54.20 18:59.90
Jason Gilder Grand Rapids South Christian -46.60 17:54.30 18:40.90
Max Knoth Hudsonville -1:20.40 17:55.50 19:15.90
Nolan Troyer Centreville -3:14.60 17:56.00 21:10.60
Miguel Flores Hartford -49.10 17:57.50 18:46.60
Zach Feyen Caledonia +8.00 18:07.40 17:59.40
Aaron Heath Hanover-Horton -43.30 18:00.20 18:43.50
Owen Glass Wayland Union -9.50 18:00.90 18:10.40
Ethan Aerts Coldwater -1:14.30 18:00.90 19:15.20
Jessica Gockley Traverse City West -1:24.90 18:01.50 19:26.40
Sam Wakeman Okemos +30.40 18:32.90 18:02.50
Ian Fox Flint Powers Catholic -47.50 18:03.00 18:50.50
Rivver Dunham Newaygo +8.00 18:15.40 18:07.40
Freddie Burchett Hartford -51.30 18:08.30 18:59.60
William Chown Traverse City Central +35.20 18:46.10 18:10.90
Reese Jones Watervliet -17.20 18:12.70 18:29.90
Michael Belinsky Bear Lake -34.00 18:16.40 18:50.40
Alexa Vanderhoff Portage Northern -48.00 18:17.00 19:05.00
Jacob Evans Schoolcraft -1:31.10 18:18.50 19:49.60
Martin Mueller Kalamazoo Loy Norrix -1:49.80 18:20.00 20:09.80
Marshall Lipe Bath -2:08.70 18:20.70 20:29.40
Austin Falbe Jenison -1:40.80 18:23.50 20:04.30
Colin Freeman Grandville +48.70 19:13.00 18:24.30
Troy Davis Leslie -1:22.10 18:25.00 19:47.10
Adam Cronin Kalamazoo Central -2:02.20 18:25.10 20:27.30
Hannah Cummings Saline -19.20 18:32.20 18:51.40
Nick Mathis Remus Chippewa Hills -20.50 18:34.60 18:55.10
Gillian Walter Saline +43.90 19:18.90 18:35.00
Maverick Stitt Fremont -58.40 18:35.10 19:33.50
Nick Bolduc Brownstown Woodhaven -1:18.00 18:36.30 19:54.30
Quintin Lee Leslie -3:43.90 18:36.50 22:20.40
Valerie Wierenga Grandville +1:01.20 19:41.70 18:40.50
Colin Raab Jenison -2:05.30 18:41.50 20:46.80
Tyler White Caledonia -2:31.60 18:42.20 21:13.80
Shane Gutkowski Frankenmuth -33.10 18:43.50 19:16.60
Adam Curtis Big Rapids Crossroads Charter -20.40 18:44.60 19:05.00
Kurt Deutschmann Ann Arbor Gabriel Richard -1:48.00 18:50.70 20:38.70
Charles Goole Lawton +10.40 19:04.90 18:54.50
Austin Ebrecht Coloma -1:37.10 18:55.40 20:32.50
Kensington Garvey Blanchard Montabella -1:44.30 18:57.00 20:41.30
Morgan Benoit Rockford +1:18.30 20:15.80 18:57.50
Jesus Amado Ann Arbor Gabriel Richard -49.10 18:59.40 19:48.50
Noe Barrell Ann Arbor Pioneer -45.40 19:10.10 19:55.50
Reese Sample Coloma -3:21.60 19:11.40 22:33.00
Robert Cardwell Ann Arbor Huron -3:38.70 19:12.20 22:50.90
Claire Brouwer Grand Rapids Christian -7.50 19:12.90 19:20.40
Ally Stapleton Grand Rapids Forest Hills Central -1:51.10 19:16.70 21:07.80
Stephanie Schaub Benzie Central -1:49.30 19:17.30 21:06.60
John Slough Jackson Lumen Christi -2:07.40 19:17.50 21:24.90
Autumn Lewis Carleton Airport -2:09.80 19:18.10 21:27.90
Cale Gray Charyl Stockwell Academy -1:41.70 19:19.60 21:01.30
Haley Dack Leslie +1.10 19:21.60 19:20.50
Marcus Traver Potterville -3:39.50 19:20.50 23:00.00
Kelli Smith Grand Rapids NorthPointe Christian -2:21.10 19:21.70 21:42.80
Tucker Scoville Delton Kellogg -5:34.00 19:24.20 24:58.20
Rebecca Estep Bay City Western +15.60 19:39.90 19:24.30
Laura Estrada Bay City Western -1:02.10 19:24.90 20:27.00
Lauren Allard Grand Rapids Forest Hills Eastern +2:40.70 22:06.10 19:25.40
Riley Waterman Schoolcraft -1:13.20 19:28.70 20:41.90
Riley Mehki Hartland -1:20.40 19:29.00 20:49.40
Anders Hindman Brownstown Woodhaven -1:37.80 19:29.60 21:07.40
Davis Devoe Schoolcraft -57.50 19:29.70 20:27.20
Hannah Kenny Grand Haven -29.10 19:32.00 20:01.10
Ashley Lindeman Manistee -9.90 19:34.60 19:44.50
Brandon Hovinga Caledonia -50.80 19:35.40 20:26.20
Connor Durow North Muskegon -1:47.20 19:37.30 21:24.50
Brandon Gore Temperance-Bedford -1:44.70 19:37.40 21:22.10
Katya Bohatch Grand Rapids Forest Hills Northern +12.00 19:50.50 19:38.50
Spencer Reibsome Bay City Western -4:20.50 19:38.50 23:59.00
Jensen Mceldowney Jackson Lumen Christi +40.90 20:19.70 19:38.80
Lily Fell Richland Gull Lake -9.90 19:40.20 19:50.10
Rachel Gohn Allendale -1:15.40 19:41.80 20:57.20
Ken Mochrie Bay City Western -3:49.70 19:45.70 23:35.40
Andrew Greenland Caledonia -19.20 19:46.80 20:06.00
Isaac Nausadis Newaygo -48.50 19:48.40 20:36.90
Brad Wynalda Grand Rapids NorthPointe Christian +0.30 19:49.00 19:48.70
Lydia Soper Grand Rapids NorthPointe Christian -24.20 19:49.10 20:13.30
Zachary Mason Kalamazoo Loy Norrix -6.80 19:49.60 19:56.40
Gabby Tavolacci Watervliet +1:26.50 21:17.00 19:50.50
Justin Stanley Leslie -12.50 19:51.50 20:04.00
Ali Chioda Vicksburg -12.40 19:58.80 20:11.20
Shannon Mcdonnell Jackson Lumen Christi -1:38.40 20:00.30 21:38.70
Olivia Cell Ann Arbor Huron +41.80 20:45.30 20:03.50
Alyssa Schwartz Grand Rapids South Christian +9.60 20:13.20 20:03.60
Megan Kordupel Portage Central +1:16.70 21:21.30 20:04.60
Cole Persch Hudsonville -2:23.40 20:05.60 22:29.00
Jeffrey Bos North Muskegon -34.70 20:05.80 20:40.50
Annemarie Maher Grand Ledge -1:04.10 20:06.30 21:10.40
Amanda Sorokin Caledonia +50.00 21:02.70 20:12.70
Kim Buskirk Blanchard Montabella -4:28.50 20:12.80 24:41.30
Josephine Fiore Kalamazoo Loy Norrix +45.60 20:59.80 20:14.20
Matthew Szerlag Hartland +33.50 20:52.10 20:18.60
Brooke Carrier Spring Lake -0.20 20:22.80 20:23.00
Natalie Purcell Flint Powers Catholic -3:37.20 20:23.30 24:00.50
Ashley Nye Benzie Central -39.40 20:26.20 21:05.60
Libby Springer Saugatuck -46.50 20:26.40 21:12.90
Abbey Clasen Benzie Central -1:07.80 20:28.50 21:36.30
Eric Hoeberling Delton Kellogg -1:54.90 20:29.50 22:24.40
Sarah Kempa Hillsdale -2:01.00 20:30.50 22:31.50
Sophie Morin Portage Northern +38.10 21:10.30 20:32.20
Kaylee Shattuck Ionia +10.00 20:46.20 20:36.20
Cecelia Batterbee Grand Rapids Forest Hills Central -25.40 20:37.90 21:03.30
Lucas Topie Hudsonville -1:30.30 20:37.90 22:08.20
Hannah Matuz Kalamazoo Central -3:11.20 20:38.80 23:50.00
Grace Glagola Ann Arbor Gabriel Richard +1:00.10 21:41.30 20:41.20
Jenna Gales Mendon -3:48.40 20:42.40 24:30.80
Megan Grimes Delton Kellogg -1:37.10 20:43.60 22:20.70
Sidney Towalski Monroe -53.10 20:46.20 21:39.30
David Mikovits Concord +3:54.30 24:42.00 20:47.70
Emily O'leary Traverse City West +1:32.10 22:21.60 20:49.50
Ana Swanson Kent City +26.60 21:17.40 20:50.80
Sarah Bellinger Shepherd -1:26.30 20:52.70 22:19.00
Megan Riegle Battle Creek Lakeview -36.20 20:55.70 21:31.90
Elsie Jorgensen Eau Claire -3:34.30 20:55.80 24:30.10
Clayton Conner Hopkins -1:54.90 20:56.60 22:51.50
Hannah Bartoshesky Ann Arbor Huron +2:12.40 23:16.60 21:04.20
Brandt Cygan Bay City Western -1:20.90 21:05.50 22:26.40
Mary Wheeler Bridgman +23.50 21:31.20 21:07.70
Emily Allison Ann Arbor Skyline -3.60 21:09.80 21:13.40
Catherine Stapleton Grand Rapids Forest Hills Central +23.70 21:34.90 21:11.20
Aidan Snell Charyl Stockwell Academy -1:48.10 21:11.40 22:59.50
Rebekka Golisch Grand Ledge -13.00 21:12.30 21:25.30
Isaac Knol Jenison -2:05.30 21:13.40 23:18.70
Faith Brown Bath +55.40 22:18.00 21:22.60
Ajilan Potter Kentwood Grand River Preparatory -4:21.30 21:25.20 25:46.50
Tayah Schuette Hanover-Horton +1:04.20 22:31.00 21:26.80
Mickala Kohtz Wayland Union +1:37.20 23:07.00 21:29.80
Abbie Takacs Kalamazoo Hackett -36.50 21:33.70 22:10.20
Brittney Johnson Watervliet +1:03.90 22:37.90 21:34.00
Joelle Humpula Remus Chippewa Hills -51.70 21:34.80 22:26.50
Samantha Mcclary Byron Center +31.50 22:06.50 21:35.00
Hannah Sperry Hesperia -3.50 21:37.10 21:40.60
Allison Moyer Kalamazoo Hackett -19.00 21:40.50 21:59.50
Yadira Rodriguez Bangor -2:19.10 21:43.60 24:02.70
Alex Morales Hartford +52.60 22:36.30 21:43.70
Paige Gould Clare -51.60 21:47.50 22:39.10
Madison Mcphee Clare +2:13.10 24:01.00 21:47.90
Carolyn Kirchner Three Rivers -12.40 21:51.70 22:04.10
Lindsey Brown Bath +1:42.00 23:34.60 21:52.60
Sarah Lefere Jackson Lumen Christi +1:02.80 22:55.60 21:52.80
Corrine Stevens Fremont +8.10 22:01.30 21:53.20
Mackenzie Walter Frankenmuth +2:18.80 24:12.10 21:53.30
Shaun Marie Banaszak Grand Rapids Catholic Central -1:46.90 21:57.50 23:44.40
Jillian Bos Grandville Calvin Christian +3:30.30 25:29.80 21:59.50
Claire Calvert Hillsdale Academy -1:24.00 21:59.50 23:23.50
Haley Stersic Byron Center +1:20.90 23:20.70 21:59.80
Lynden Hamstra Jenison -29.60 21:59.80 22:29.40
Connor Mathis Newaygo -1:04.20 21:59.90 23:04.10
Lydia Bekius Zeeland West +12.00 22:12.40 22:00.40
Riley Raburn Jackson Lumen Christi -12.70 22:05.90 22:18.60
Brooke Schooley Hesperia +47.70 22:56.10 22:08.40
Lyndsi Bremer Allendale +10.90 22:20.90 22:10.00
Delaney Abendroth Bath +3:07.80 25:18.00 22:10.20
Rachel Truskowski Grand Rapids Catholic Central -2:58.60 22:19.40 25:18.00
Madyson Farris Monroe -2:23.10 22:24.50 24:47.60
Alyvia Karcher Blanchard Montabella +48.30 23:26.00 22:37.70
Jack Wojcik Battle Creek St. Philip -3:29.00 22:38.90 26:07.90
Jamie Barrett Three Rivers +2:05.70 24:54.50 22:48.80
Rain Barnes Three Rivers +2:06.10 24:59.10 22:53.00
Milagro Guerra Kentwood Grand River Preparatory +1:15.80 24:11.40 22:55.60
Melany Rochester Jackson Lumen Christi +37.70 23:38.40 23:00.70
Kylie Ostrofsky Frankenmuth -6.50 23:08.40 23:14.90
Ashley Dine Stevensville-Lakeshore +3:40.20 27:04.00 23:23.80
Abi Samson Frankenmuth +14.30 23:50.70 23:36.40
Sandra Cesco Concord -1:30.70 23:39.30 25:10.00
Alek Humphries Grass Lake -2:46.90 23:40.40 26:27.30
Katherine Maiville Leslie -13.20 23:59.20 24:12.40
Paige Cutler Benzie Central +2.00 24:10.30 24:08.30
Madison Chesebro Grant -2.00 24:10.70 24:12.70
Kathryn Lignell Grand Rapids Catholic Central -31.80 24:14.70 24:46.50
Alison Dunlap Kalamazoo Christian +3:43.20 28:02.70 24:19.50
Isabel Boes St. Clair +4:09.70 28:39.20 24:29.50
Kelsey Toporski Kent City -4.10 24:39.50 24:43.60
Reanna Doonan Kalamazoo Central +3:53.90 28:42.90 24:49.00
Caroline Stacey Constantine +48.00 25:48.70 25:00.70
Dillon Begley Constantine -2:26.40 25:11.40 27:37.80
Elizabeth Hasted South Haven -7.30 25:14.70 25:22.00
Emily Ford Bangor -2:10.30 25:36.40 27:46.70
Sierra Simmons Leslie +39.10 26:17.30 25:38.20
Lindsey Willet Leslie +1:38.70 28:34.00 26:55.30
Ylana Padgett New Buffalo +1:02.00 27:59.30 26:57.30
Tarah Gates Potterville -26.80 27:08.40 27:35.20
Kylee Isham Leslie +36.50 29:11.10 28:34.60